SCP
0 0 0 0 0 1 1 1 1 1 0 0 1 1 1 0 0 0 0 0 0 0 0 0 0 0 0 1 1 1 1 1 0 0 0 0 0 0
0 0 0 0 0 0 1 1 1 1 0 0 0 1 1 0 0 0 0 0 0 0 0 0 0 0 0 0 1 1 0 0 0 0 0 0 0 0
0 0 0 0 0 0 0 1 1 1 0 0 0 1 1 0 0 0 0 0 0 0 0 0 0 0 0 0 0 0 0 0 0 0 0 0 0 0
0 0 0 0 0 0 0 0 0 0 0 0 0 0 0 0 0 0 0 0 0 0 0 0 0 0 0 0 0 0 0 0 0 0 0 0 0 0
0 0 0 0 0 0 0 0 0 0 0 0 0 0 0 0 0 0 0 0 0 0 0 0 0 0 0 0 0 0 0 0 0 0 0 0 0 0
0 0 0 0 0 0 0 0 0 0 0 0 0 0 0 0 0 0 0 0 0 0 0 0 0 0 0 0 0 0 0 0 0 0 0 0 0 0
0 0 0 0 0 0 0 0 0 0 0 0 0 0 0 0 0 0 0 0 0 0 0 0 0 0 0 0 0 0 0 0 0 0 0 0 0 0
0 0 0 0 0 0 0 0 0 0 0 0 0 0 0 0 0 0 0 0 0 0 0 0 0 0 0 0 0 0 0 0 0 0 0 0 0 0
0 0 0 0 0 0 0 0 0 0 0 0 0 0 0 0 0 0 0 0 0 0 0 0 0 0 0 0 0 0 0 0 0 0 0 0 0 0
0 0 0 0 0 0 0 0 0 0 0 0 0 0 0 0 0 0 0 0 0 0 0 0 0 0 0 0 0 0 0 0 0 0 0 0 0 0
0 0 0 0 0 0 0 0 0 0 0 0 0 0 0 0 0 0 0 0 0 0 0 0 0 0 0 0 0 0 0 0 0 0 0 0 0 0
0 0 0 0 0 0 0 0 0 0 0 0 0 0 0 0 0 0 0 0 0 0 0 0 0 0 0 0 0 0 0 0 0 0 0 0 0 0
0 0 0 0 0 0 0 0 0 0 0 0 0 0 0 0 0 0 0 0 0 0 0 0 0 0 0 0 0 0 0 0 0 0 0 0 0 0
0 0 0 0 0 0 0 0 0 0 0 0 0 0 0 0 0 0 0 0 0 0 0 0 0 0 0 0 0 0 0 0 0 0 0 0 0 0
0 0 0 0 0 0 0 0 0 0 0 0 0 0 0 0 0 0 0 0 0 0 0 0 0 0 0 0 0 0 0 0 0 0 0 0 0 0
0 0 0 0 0 0 0 0 0 0 0 0 0 0 0 0 0 0 0 0 0 0 0 0 0 0 0 0 0 0 0 0 0 0 0 0 0 0
0 0 0 0 0 0 0 0 0 0 0 0 0 0 0 0 0 0 0 0 0 0 0 0 0 0 0 0 0 0 0 0 0 0 0 0 0 0
0 0 0 0 0 0 0 0 0 0 0 0 0 0 0 0 0 0 0 0 0 0 0 0 0 0 0 0 0 0 0 0 0 0 0 0 0 0
0 0 0 0 0 0 0 0 0 0 0 0 0 -0 0 0 0 0 0 0 0 0 0 0 0 0 0 0 0 0 0 0 0 0 0 0 0 0
0 0 0 0 0 0 0 0 0 0 0 0 0 0 0 0 0 0 0 0 0 0 0 0 0 0 0 0 0 0 0 0 0 0 0 0 0 0
0 0 0 0 0 0 0 0 0 0 0 0 0 0 0 0 0 0 0 0 0 0 0 0 0 0 0 0 0 0 0 0 0 0 0 0 0 0
0 0 0 0 0 0 0 0 0 0 0 0 0 0 0 0 0 0 0 0 0 0 0 0 0 0 0 0 0 0 0 0 0 0 0 0 0 0
0 0 0 0 0 0 0 0 0 0 0 0 0 0 0 0 0 0 0 0 0 0 0 0 0 0 0 0 0 0 0 0 0 0 0 0 0 0
Wind_Speed
10 11 10 11 10 10 11 13 17 20 19 18 14 16 12 12 16 13 11 18 23 26 28 28 28 25 23 25 25 26 24 22 21 22 21 19 18 17
10 12 12 10 10 10 10 10 12 16 21 19 14 12 10 7 12 12 13 18 22 27 27 27 27 26 25 23 22 21 19 19 22 22 22 20 19 18
12 13 13 13 11 10 10 11 11 13 18 19 13 12 12 8 8 8 9 10 13 24 28 29 28 27 24 22 23 22 20 21 22 21 22 20 18 18
14 14 13 12 13 13 11 12 13 14 15 19 17 12 12 10 10 10 9 8 8 15 23 26 26 25 23 22 23 21 19 19 20 20 20 17 17 18
13 12 12 13 14 13 13 13 13 13 14 16 18 14 11 9 6 8 8 7 7 10 15 19 22 23 24 25 22 19 18 18 18 18 18 18 16 18
11 10 10 11 14 15 14 14 15 15 14 15 16 14 13 7 3 7 8 5 6 3 6 10 14 19 21 21 21 16 15 15 17 19 18 18 17 17
9 9 9 12 17 16 16 16 16 14 13 13 14 13 11 8 6 6 9 6 6 6 5 7 7 10 16 18 16 19 17 17 18 17 18 19 17 17
12 14 14 15 15 22 24 23 22 21 17 13 14 14 16 13 10 8 9 8 6 5 6 6 6 6 7 9 16 19 20 19 19 18 20 18 18 20
14 15 15 13 15 18 22 24 24 26 23 18 17 18 18 17 16 13 9 11 10 4 8 5 6 6 5 8 19 17 16 18 19 20 20 19 19 18
13 14 16 12 15 21 20 20 21 20 19 16 16 18 18 17 16 17 15 9 5 1 5 4 5 4 5 7 16 15 16 18 20 21 21 21 19 17
14 15 16 16 21 28 22 21 23 21 19 23 23 24 27 27 21 15 11 8 6 3 2 5 4 3 3 3 5 13 17 20 21 20 20 19 18 16
13 14 20 23 29 32 24 20 20 20 19 18 17 19 18 15 15 11 10 10 5 4 6 7 4 4 4 3 3 2 7 14 15 15 16 16 15 7
12 11 13 27 33 33 28 17 19 22 19 16 14 12 9 5 5 5 5 6 5 3 9 9 5 4 5 5 3 1 1 2 2 3 7 10 13 10
13 12 16 30 33 30 23 23 28 22 13 12 11 10 9 7 4 3 3 4 4 4 7 5 5 6 6 5 4 2 3 4 4 4 4 2 4 10
14 21 27 29 26 20 24 27 21 12 11 12 11 11 8 4 2 3 4 7 10 10 8 7 7 7 4 4 3 4 4 2 2 2 2 2 2 2
15 18 22 21 19 19 18 14 10 10 11 11 10 10 7 2 1 2 1 4 6 7 11 12 9 6 3 4 4 4 3 3 2 2 2 2 3 3
19 11 11 12 12 12 12 12 11 11 11 10 9 9 5 1 1 1 1 3 4 4 6 7 6 6 5 5 4 3 2 1 2 3 2 2 3 5
15 10 10 12 12 13 13 13 13 13 12 11 10 8 4 2 2 1 2 3 5 6 5 3 2 3 4 3 1 3 2 2 2 3 4 4 4 5
11 10 10 12 13 13 13 14 15 14 13 10 9 7 3 2 3 3 3 4 5 5 4 2 3 3 3 2 2 3 3 2 3 4 4 5 4 4
9 10 11 12 13 12 13 14 14 14 12 10 8 5 2 1 2 4 3 4 5 4 3 2 2 2 3 2 1 3 6 5 4 3 2 3 4 7
9 10 11 12 13 12 13 14 15 14 14 10 6 4 1 1 2 3 4 7 5 3 3 1 0 3 3 2 1 3 4 8 8 5 3 3 3 3
10 10 11 12 11 12 13 14 14 14 12 8 5 3 1 2 3 4 4 4 3 3 2 1 1 3 2 1 1 2 4 5 7 11 13 12 6 3
10 10 11 11 11 12 13 13 14 12 10 6 4 3 3 3 4 4 5 4 3 3 2 2 2 2 0 1 3 3 3 4 3 3 5 12 17 14
Wind_Direction
295 291 290 292 289 282 276 273 279 286 282 275 266 254 241 230 228 222 220 234 234 237 236 236 237 233 231 233 232 225 215 205 209 213 210 212 220 230
304 303 298 296 296 291 283 279 275 280 285 283 278 267 257 233 228 219 219 229 230 231 233 231 228 227 225 225 222 210 198 199 207 210 209 213 219 226
312 308 304 304 304 302 298 295 290 287 288 290 288 280 265 243 241 236 233 234 237 233 231 227 222 221 219 210 191 187 191 196 202 207 211 211 218 223
311 308 309 313 312 309 305 300 298 295 291 290 290 283 271 252 239 246 246 242 243 246 239 231 220 215 211 192 184 180 186 193 196 204 206 208 216 225
304 304 308 311 309 309 309 307 304 298 291 287 286 286 280 271 251 258 264 265 253 247 245 237 223 214 207 189 183 179 181 183 190 198 200 201 211 224
298 295 300 308 310 310 308 306 304 300 298 293 286 282 279 275 230 266 268 254 255 260 262 251 228 214 205 185 172 175 179 181 191 195 199 201 199 218
292 292 296 301 298 307 316 313 312 311 306 304 301 295 283 271 266 258 258 260 227 216 218 225 208 196 179 176 171 166 174 185 194 203 207 205 198 211
319 320 316 312 313 324 315 312 313 310 306 305 300 297 296 291 278 268 274 268 250 196 203 223 185 181 165 161 170 169 173 189 196 207 215 208 204 210
323 323 316 315 326 320 315 315 314 307 303 299 293 291 297 300 296 281 275 273 265 188 176 188 162 162 142 150 157 168 187 199 203 207 208 208 209 212
318 316 310 315 319 317 317 314 310 305 296 283 278 283 284 286 288 291 286 280 315 282 150 154 165 161 148 157 168 180 200 208 207 204 202 204 208 215
319 313 310 312 313 318 316 309 304 300 295 285 275 276 277 277 277 276 271 248 246 243 146 113 123 95 89 101 154 191 206 213 208 202 201 203 207 213
309 310 312 313 316 316 312 303 300 308 315 316 304 291 285 283 288 280 266 254 227 208 188 136 127 126 113 64 72 218 220 217 206 206 207 205 202 195
315 313 310 312 313 310 305 301 311 316 313 312 306 304 302 292 282 272 265 260 217 200 179 150 136 123 94 95 88 129 59 60 69 192 198 198 207 202
315 310 309 312 309 309 312 319 320 320 310 307 304 307 304 294 293 316 350 31 52 107 141 127 117 119 114 114 133 126 64 67 68 67 72 93 232 234
313 314 319 318 319 321 321 321 322 315 306 306 307 307 302 309 352 354 41 69 72 66 64 61 92 98 91 120 127 119 116 103 100 110 127 150 172 194
317 319 320 324 322 317 315 314 313 308 307 305 303 303 302 309 2 357 27 79 79 65 59 58 65 86 106 91 98 116 128 129 143 156 150 176 199 201
328 323 321 321 316 313 312 315 315 313 312 311 307 301 295 257 152 102 49 41 73 89 82 72 69 65 74 110 115 136 142 162 181 160 168 230 234 215
329 315 318 316 313 315 318 317 317 318 316 315 310 300 284 214 177 117 75 91 112 109 101 93 75 54 42 33 113 137 144 176 199 194 196 209 239 224
318 310 315 313 312 316 318 317 316 315 315 312 309 303 278 208 171 129 113 110 108 100 95 75 66 80 76 40 327 199 170 188 197 207 205 207 218 220
309 311 314 313 313 313 317 316 311 313 316 317 314 306 289 185 131 132 127 110 109 109 90 55 74 115 129 153 278 273 231 215 212 217 224 231 243 241
311 315 313 311 309 312 314 311 309 312 319 321 317 308 314 105 107 108 116 123 118 96 95 80 33 119 110 82 324 286 266 244 237 209 197 219 247 244
310 312 313 310 311 315 312 310 310 314 319 319 315 318 27 73 88 89 84 90 88 93 110 137 37 65 75 139 227 263 287 294 281 258 231 217 215 210
308 310 311 309 313 314 311 309 311 314 317 316 322 350 31 55 68 73 75 85 99 84 67 38 23 36 29 246 272 268 270 270 277 293 257 235 229 225